Location: Del Amo
(33.8464°N, 118.2104°W)
Time: 04:22:34
(UTC+00:00)

S-56A Canister/Altair - Pass Details

Date: 19 September 2024
Orbit: 636 x 2487 km, 38.9° (Epoch: 05 October)

Event Time Altitude Azimuth Distance (km) Brightness Sun altitude
Rises 01:34:58 0° 257° (WSW) 2,975 12.7 3.2°
Reaches altitude 10° 01:37:05 10° 260° (W) 2,138 12.0 2.7°
Maximum altitude 01:41:54 71° 345° (NNW) 861 8.0 1.7°
Drops below altitude 10° 01:48:33 10° 69° (ENE) 2,919 9.9 0.3°
Sets 01:51:52 0° 71° (ENE) 4,169 10.7 -0.3°
